EW5383 Weather Reports


Display with metric or nautical units.
time (UTC)temp
F
wind
direction
speed
MPH
gust
MPH
rain 1hr
in
rain 24hr
in
rain mn
in
humidity
%
barometer
mb
20260906214525 92 1 0.0 0.0 0.00 0.00 0.00 60 1010.6
20260906213023 93 113 0.0 0.0 0.00 0.00 0.00 60 1010.9
20260906211518 93 8 0.0 1.0 0.00 0.00 0.00 59 1011.0
20260906210011 93 253 0.0 1.0 0.00 0.00 0.00 59 1011.1
20260906204509 94 304 0.0 1.0 0.00 0.00 0.00 60 1011.1
20260906203010 94 29 0.0 2.0 0.00 0.00 0.00 60 1011.2
20260906201610 95 60 0.0 0.0 0.00 0.00 0.00 59 1011.4
20260906200054 95 88 0.0 1.0 0.00 0.00 0.00 59 1011.7
20260906194549 94 89 0.0 1.0 0.00 0.00 0.00 60 1011.9
20260906193046 94 267 0.0 1.0 0.00 0.00 0.00 59 1012.2
20260906191541 95 46 0.0 0.0 0.00 0.00 0.00 59 1012.3
20260906190036 95 110 0.0 1.0 0.00 0.00 0.00 59 1012.4
20260906184535 95 24 0.0 1.0 0.00 0.00 0.00 58 1012.4
20260906183027 95 248 0.0 0.0 0.00 0.00 0.00 59 1012.5
20260906181525 95 255 0.0 0.0 0.00 0.00 0.00 58 1012.6
20260906180018 95 154 0.0 1.0 0.00 0.00 0.00 59 1012.7
20260906174513 94 43 0.0 1.0 0.00 0.00 0.00 59 1012.8
20260906173009 95 269 0.0 1.0 0.00 0.00 0.00 59 1012.9
20260906171505 93 15 0.0 1.0 0.00 0.00 0.00 59 1012.9
20260906170005 94 340 0.0 1.0 0.00 0.00 0.00 59 1013.1
20260906164559 93 81 0.0 1.0 0.00 0.00 0.00 59 1013.2
20260906163052 93 11 0.0 1.0 0.00 0.00 0.00 59 1013.3
20260906161547 94 266 0.0 0.0 0.00 0.00 0.00 59 1013.4
20260906160043 94 60 0.0 0.0 0.00 0.00 0.00 58 1013.9
20260906154540 93 307 0.0 0.0 0.00 0.00 0.00 58 1013.9
20260906153038 93 325 0.0 1.0 0.00 0.00 0.00 58 1014.0
20260906151530 92 75 0.0 0.0 0.00 0.00 0.00 57 1013.6
20260906150027 90 60 0.0 0.0 0.00 0.00 0.00 54 1013.8
20260906144534 91 60 0.0 0.0 0.00 0.00 0.00 52 1013.8
20260906143020 91 27 0.0 0.0 0.00 0.00 0.00 47 1013.9
20260906141516 89 48 0.0 0.0 0.00 0.00 0.00 42 1014.0
20260906140013 91 46 0.0 0.0 0.00 0.00 0.00 18 1014.1
20260906134513 89 52 0.0 1.0 0.00 0.00 0.00 3 1014.1
20260906133002 89 160 0.0 0.0 0.00 0.00 0.00 1 1014.1
20260906131559 88 116 0.0 0.0 0.00 0.00 0.00 1 1014.0
20260906130054 85 113 0.0 0.0 0.00 0.00 0.00 1 1013.8
20260906124548 83 122 0.0 0.0 0.00 0.00 0.00 1 1013.5
20260906123113 82 120 0.0 0.0 0.00 0.00 0.00 1 1013.5
20260906121542 80 124 0.0 0.0 0.00 0.00 0.00 1 1013.6
20260906120035 78 124 0.0 0.0 0.00 0.00 0.00 1 1013.3
20260906114532 76 125 0.0 0.0 0.00 0.00 0.00 1 1013.0
20260906113027 0 0.0 0.0 0.00 0.00 0.00 1012.9
20260906111528 0 0.0 0.0 0.00 0.00 0.00 1012.8
20260906110017 0 0.0 0.0 0.00 0.00 0.00 1012.5
20260906104513 0 0.0 0.0 0.00 0.00 0.00 1012.3
20260906103009 0 0.0 0.0 0.00 0.00 0.00 1012.0
20260906101507 0 0.0 0.0 0.00 0.00 0.00 1011.9
20260906094606 0 0.0 0.0 0.00 0.00 0.00 1011.1
20260906093053 0 0.0 0.0 0.00 0.00 0.00 1011.1
20260906091601 0 0.0 0.0 0.00 0.00 0.00 1011.2
20260906090044 0 0.0 0.0 0.00 0.00 0.00 1011.1
20260906084539 0 0.0 0.0 0.00 0.00 0.00 1011.2
20260906083037 0 0.0 0.0 0.00 0.00 0.00 1011.3
20260906081529 0 0.0 0.0 0.00 0.00 0.00 1011.4
20260906080030 0 0.0 0.0 0.00 0.00 0.00 1011.5
20260906074522 0 0.0 0.0 0.00 0.00 0.00 1011.6
20260906073018 0 0.0 0.0 0.00 0.00 0.00 1011.8
20260906071512 0 0.0 0.0 0.00 0.00 0.00 1011.8
20260906070008 0 0.0 0.0 0.00 0.00 0.00 1011.9
20260906064504 0 0.0 0.0 0.00 0.00 0.00 1011.9
20260906063102 0 0.0 0.0 0.00 0.00 0.00 1012.2
20260906061555 0 0.0 0.0 0.00 0.00 0.00 1012.5
20260906060052 0 0.0 0.0 0.00 0.00 0.00 1012.6
20260906054547 0 0.0 0.0 0.00 0.00 0.00 1012.9
20260906053058 0 0.0 0.0 0.00 0.00 0.00 1013.1
20260906051538 0 0.0 0.0 0.00 0.00 0.00 1013.1
20260906050042 0 0.0 0.0 0.00 0.00 0.00 1013.0
20260906044530 0 0.0 0.0 0.00 0.00 0.00 1013.0
20260906043030 0 0.0 0.0 0.00 0.00 0.00 1012.8
20260906041521 0 0.0 0.0 0.00 0.00 0.00 1013.0
20260906040017 0 0.0 0.0 0.00 0.00 0.00 1013.3
20260906034512 0 0.0 0.0 0.00 0.00 0.00 1013.3
20260906033018 0 0.0 0.0 0.00 0.00 0.00 1013.3
20260906031503 0 0.0 0.0 0.00 0.00 0.00 1013.3
20260906030100 0 0.0 0.0 0.00 0.00 0.00 1013.4
20260906024557 0 0.0 0.0 0.00 0.00 0.00 1013.5
20260906023055 0 0.0 0.0 0.00 0.00 0.00 1013.5
20260906021547 81 336 0.0 0.0 0.00 0.00 0.00 1 1013.6
20260906020057 82 333 0.0 0.0 0.00 0.00 0.00 1 1013.6
20260906014541 82 332 0.0 0.0 0.00 0.00 0.00 1 1013.4
20260906013048 82 332 0.0 0.0 0.00 0.00 0.00 1 1013.1
20260906011535 83 333 0.0 0.0 0.00 0.00 0.00 1 1012.9
20260906010028 83 332 0.0 0.0 0.00 0.00 0.00 1 1012.9
20260906004523 83 332 0.0 0.0 0.00 0.00 0.00 1 1012.9
20260906003019 84 333 0.0 0.0 0.00 0.00 0.00 1 1013.0
20260906001518 84 332 0.0 0.0 0.00 0.00 0.00 1 1012.8
20260906000030 85 333 0.0 0.0 0.00 0.00 0.00 2 1012.8
20260905234507 85 330 0.0 0.0 0.00 0.00 0.00 22 1012.8
20260905233002 86 330 0.0 0.0 0.00 0.00 0.00 41 1012.6
20260905231556 87 55 0.0 0.0 0.00 0.00 0.00 47 1012.7
20260905230054 88 290 0.0 0.0 0.00 0.00 0.00 54 1012.7
20260905224552 89 314 0.0 0.0 0.00 0.00 0.00 57 1012.6
20260905223043 89 298 0.0 1.0 0.00 0.00 0.00 56 1012.7
20260905221540 90 76 0.0 0.0 0.00 0.00 0.00 58 1012.6
20260905220036 91 320 0.0 0.0 0.00 0.00 0.00 60 1012.5